Weather History for Payson, AZ

Change the Weather History Date:

Thursday, February 13, 2014

  Actual Average Record
Temperature  
Mean Temperature 58 °F -  
Max Temperature 71 °F 57 °F 71 °F (2014)
Min Temperature 44 °F 26 °F 28 °F (2013)
Degree Days  
Heating Degree Days 8    
Growing Degree Days 8 (Base 50)    
Moisture  
Dew Point 23 °F    
Average Humidity 27    
Maximum Humidity 38    
Minimum Humidity 15    
Precipitation  
Precipitation 0.00 in - - ()
Sea Level Pressure  
Sea Level Pressure 30.17 in    
Wind  
Wind Speed 3 mph (WSW)    
Max Wind Speed 13 mph    
Max Gust Speed 23 mph    
Visibility 10 miles    
Events      
Averages and records for this station are not official NWS values.
T = Trace of Precipitation, MM = Missing Value Source: NWS Daily Summary

Daily Weather History Graph

Daily Weather History Graph

Search for Another Location

Airport:

Trip Planner

Search our weather history database for the weather conditions in past years. The results will help you decide how hot, cold, wet, or windy it might be!

Date:

Astronomy

Feb. 13, 2014 Rise Set
Actual Time 7:12 AM MST 6:07 PM MST
Civil Twilight 6:46 AM MST 6:33 PM MST
Nautical Twilight 6:17 AM MST 7:02 PM MST
Astronomical Twilight 5:47 AM MST 7:31 PM MST
Moon 5:18 PM MST (2/13) 6:07 AM MST (2/13)
Length of Visible Light 11h 46m
Length of Day
10h 54m
Waxing Gibbous, 99% of the Moon is Illuminated
Feb 13
Waxing Gibbous
Feb 14
Full
Feb 22
Last Quarter
Mar 1
New
Mar 8
First Quarter

Hourly Weather History & Observations

Time (MST) Temp. Dew Point Humidity Pressure Visibility Wind Dir Wind Speed Gust Speed Precip Events Conditions
12:15 AM 50.0 °F 19.4 °F 30% 30.19 in 10.0 mi Calm Calm - N/A   Clear
12:35 AM 50.0 °F 19.4 °F 30% 30.19 in 10.0 mi Calm Calm - N/A   Clear
12:55 AM 51.8 °F 19.4 °F 28% 30.19 in 10.0 mi Calm Calm - N/A   Clear
1:15 AM 50.0 °F 19.4 °F 30% 30.19 in 10.0 mi Calm Calm - N/A   Clear
1:35 AM 53.6 °F 19.4 °F 26% 30.19 in 10.0 mi South 4.6 mph - N/A   Clear
1:55 AM 51.8 °F 19.4 °F 28% 30.19 in 10.0 mi South 4.6 mph - N/A   Clear
2:15 AM 50.0 °F 19.4 °F 30% 30.18 in 10.0 mi South 4.6 mph - N/A   Clear
2:35 AM 51.8 °F 19.4 °F 28% 30.18 in 10.0 mi SSW 4.6 mph - N/A   Clear
2:55 AM 50.0 °F 19.4 °F 30% 30.18 in 10.0 mi Calm Calm - N/A   Clear
3:15 AM 51.8 °F 19.4 °F 28% 30.18 in 10.0 mi South 4.6 mph - N/A   Clear
3:35 AM 50.0 °F 19.4 °F 30% 30.17 in 10.0 mi SSE 4.6 mph - N/A   Clear
3:55 AM 48.2 °F 19.4 °F 32% 30.17 in 10.0 mi SE 6.9 mph - N/A   Clear
4:15 AM 48.2 °F 19.4 °F 32% 30.17 in 10.0 mi Calm Calm - N/A   Clear
4:35 AM 46.4 °F 19.4 °F 34% 30.17 in 10.0 mi Calm Calm - N/A   Clear
4:55 AM 44.6 °F 19.4 °F 37% 30.17 in 10.0 mi Calm Calm - N/A   Clear
5:15 AM 46.4 °F 21.2 °F 37% 30.18 in 10.0 mi Calm Calm - N/A   Clear
5:35 AM 46.4 °F 21.2 °F 37% 30.18 in 10.0 mi Calm Calm - N/A   Clear
5:55 AM 46.4 °F 21.2 °F 37% 30.18 in 10.0 mi Calm Calm - N/A   Clear
6:15 AM 46.4 °F 21.2 °F 37% 30.18 in 10.0 mi Calm Calm - N/A   Clear
6:35 AM 48.2 °F 21.2 °F 34% 30.19 in 10.0 mi Calm Calm - N/A   Clear
6:55 AM 50.0 °F 21.2 °F 32% 30.20 in 10.0 mi Calm Calm - N/A   Clear
7:15 AM 48.2 °F 21.2 °F 34% 30.20 in 10.0 mi Calm Calm - N/A   Clear
7:35 AM 48.2 °F 21.2 °F 34% 30.20 in 10.0 mi NE 3.5 mph - N/A   Clear
7:55 AM 50.0 °F 21.2 °F 32% 30.21 in 10.0 mi NW 4.6 mph - N/A   Clear
8:15 AM 51.8 °F 23.0 °F 33% 30.21 in 10.0 mi NNW 4.6 mph - N/A   Clear
8:35 AM 55.4 °F 23.0 °F 29% 30.22 in 10.0 mi NNW 5.8 mph - N/A   Clear
8:55 AM 57.2 °F 24.8 °F 29% 30.23 in 10.0 mi Calm Calm - N/A   Clear
9:15 AM 60.8 °F 26.6 °F 27% 30.23 in 10.0 mi Calm Calm - N/A   Clear
9:55 AM 62.6 °F 24.8 °F 24% 30.24 in 10.0 mi Variable 5.8 mph - N/A   Clear
10:15 AM 64.4 °F 24.8 °F 22% 30.24 in 10.0 mi WSW 6.9 mph - N/A   Clear
10:35 AM 66.2 °F 23.0 °F 19% 30.24 in 10.0 mi Variable 6.9 mph - N/A   Clear
10:55 AM 68.0 °F 24.8 °F 20% 30.23 in 10.0 mi West 6.9 mph - N/A   Clear
11:15 AM 68.0 °F 24.8 °F 20% 30.23 in 10.0 mi West 8.1 mph - N/A   Clear
11:35 AM 68.0 °F 24.8 °F 20% 30.22 in 10.0 mi West 8.1 mph - N/A   Clear
11:55 AM 68.0 °F 24.8 °F 20% 30.21 in 10.0 mi WSW 10.4 mph - N/A   Clear
12:35 PM 69.8 °F 24.8 °F 18% 30.18 in 10.0 mi West 12.7 mph - N/A   Clear
12:55 PM 69.8 °F 24.8 °F 18% 30.17 in 10.0 mi West 10.4 mph - N/A   Clear
1:15 PM 69.8 °F 23.0 °F 17% 30.16 in 10.0 mi WSW 11.5 mph 17.3 mph N/A   Clear
1:35 PM 69.8 °F 23.0 °F 17% 30.15 in 10.0 mi WSW 12.7 mph - N/A   Clear
1:55 PM 69.8 °F 23.0 °F 17% 30.14 in 10.0 mi SW 9.2 mph 17.3 mph N/A   Clear
2:15 PM 71.6 °F 21.2 °F 15% 30.13 in 10.0 mi WSW 9.2 mph 23.0 mph N/A   Clear
2:35 PM 71.6 °F 21.2 °F 15% 30.12 in 10.0 mi WSW 11.5 mph 18.4 mph N/A   Clear
2:55 PM 71.6 °F 21.2 °F 15% 30.12 in 10.0 mi WSW 12.7 mph 19.6 mph N/A   Clear
3:15 PM 71.6 °F 23.0 °F 16% 30.12 in 10.0 mi WSW 11.5 mph - N/A   Clear
3:35 PM 69.8 °F 23.0 °F 17% 30.12 in 10.0 mi West 9.2 mph 15.0 mph N/A   Clear
3:55 PM 69.8 °F 24.8 °F 18% 30.13 in 10.0 mi WSW 10.4 mph 17.3 mph N/A   Clear
4:15 PM 69.8 °F 24.8 °F 18% 30.12 in 10.0 mi Variable 6.9 mph 15.0 mph N/A   Clear
4:35 PM 69.8 °F 24.8 °F 18% 30.12 in 10.0 mi West 8.1 mph 18.4 mph N/A   Clear
4:55 PM 69.8 °F 24.8 °F 18% 30.13 in 10.0 mi Variable 6.9 mph 12.7 mph N/A   Clear
5:15 PM 68.0 °F 24.8 °F 20% 30.12 in 10.0 mi West 6.9 mph - N/A   Clear
5:35 PM 66.2 °F 24.8 °F 21% 30.12 in 10.0 mi West 4.6 mph - N/A   Clear
5:55 PM 64.4 °F 24.8 °F 22% 30.13 in 10.0 mi West 5.8 mph - N/A   Clear
6:15 PM 62.6 °F 24.8 °F 24% 30.13 in 10.0 mi WNW 6.9 mph - N/A   Clear
6:35 PM 60.8 °F 24.8 °F 25% 30.13 in 10.0 mi WNW 8.1 mph - N/A   Clear
7:15 PM 60.8 °F 24.8 °F 25% 30.14 in 10.0 mi WNW 6.9 mph - N/A   Clear
7:35 PM 59.0 °F 24.8 °F 27% 30.15 in 10.0 mi NW 5.8 mph - N/A   Clear
7:55 PM 57.2 °F 24.8 °F 29% 30.15 in 10.0 mi East 4.6 mph - N/A   Clear
8:15 PM 59.0 °F 24.8 °F 27% 30.15 in 10.0 mi Calm Calm - N/A   Clear
8:35 PM 57.2 °F 24.8 °F 29% 30.15 in 10.0 mi Calm Calm - N/A   Clear
8:55 PM 55.4 °F 24.8 °F 31% 30.14 in 10.0 mi SSE 3.5 mph - N/A   Clear
9:15 PM 55.4 °F 24.8 °F 31% 30.14 in 10.0 mi South 3.5 mph - N/A   Clear
9:35 PM 53.6 °F 24.8 °F 33% 30.15 in 10.0 mi Calm Calm - N/A   Clear
9:55 PM 51.8 °F 24.8 °F 35% 30.17 in 10.0 mi Calm Calm - N/A   Clear
10:15 PM 50.0 °F 24.8 °F 37% 30.18 in 10.0 mi Calm Calm - N/A   Clear
10:35 PM 50.0 °F 24.8 °F 37% 30.19 in 10.0 mi NNW 4.6 mph - N/A   Clear
11:15 PM 50.0 °F 24.8 °F 37% 30.18 in 10.0 mi Calm Calm - N/A   Clear
11:35 PM 51.8 °F 26.6 °F 38% 30.18 in 10.0 mi Calm Calm - N/A   Clear
11:55 PM 50.0 °F 24.8 °F 37% 30.18 in 10.0 mi Calm Calm - N/A   Clear